Lone Rock, WI

8:24 PM CDT on May 25, 2017 (GMT -0500)
Tri-County Regional

Weather History for KLNR - November, 2012

Change the Weather History Date:

Thursday, November 29, 2012

  Actual Average Record
Temperature  
Mean Temperature 36 °F -  
Max Temperature 50 °F 39 °F 62 °F (1998)
Min Temperature 23 °F 24 °F 9 °F (2013)
Degree Days  
Heating Degree Days 28    
Moisture  
Dew Point 27 °F    
Average Humidity 67    
Maximum Humidity 85    
Minimum Humidity 46    
Precipitation  
Precipitation 0.00 in - - ()
Sea Level Pressure  
Sea Level Pressure 30.11 in    
Wind  
Wind Speed 3 mph (ESE)    
Max Wind Speed 10 mph    
Max Gust Speed -    
Visibility 8 miles    
Events      
Averages and records for this station are not official NWS values.
T = Trace of Precipitation, MM = Missing Value Source: NWS Daily Summary

Daily Weather History Graph

Daily Weather History Graph

Search for Another Location

Airport or City:

Trip Planner

Search our weather history database for the weather conditions in past years. The results will help you decide how hot, cold, wet, or windy it might be!

Date:

Astronomy

Nov. 29, 2012 Rise Set
Actual Time 7:11 AM CST 4:27 PM CST
Civil Twilight 6:39 AM CST 4:58 PM CST
Nautical Twilight 6:04 AM CST 5:34 PM CST
Astronomical Twilight 5:29 AM CST 6:08 PM CST
Moon 5:29 PM CST (11/29) 7:58 AM CST (11/29)
Length of Visible Light 10h 19m
Length of Day
9h 15m
Full, 99% of the Moon is Illuminated
Nov 29
Full
Dec 6
Last Quarter
Dec 13
New
Dec 19
First Quarter
Dec 28
Full

Hourly Weather History & Observations

Time (CST) Temp. Windchill Dew Point Humidity Pressure Visibility Wind Dir Wind Speed Gust Speed Precip Events Conditions
12:56 AM 33.1 °F - 21.9 °F 64% 30.20 in 10.0 mi Calm Calm - N/A   Clear
1:56 AM 33.1 °F 28.7 °F 23.0 °F 66% 30.19 in 10.0 mi SE 4.6 mph - N/A   Clear
2:56 AM 30.0 °F - 21.9 °F 72% 30.17 in 9.0 mi Calm Calm - N/A   Clear
3:56 AM 32.0 °F - 23.0 °F 69% 30.15 in 9.0 mi Calm Calm - N/A   Clear
4:56 AM 30.0 °F 26.5 °F 23.0 °F 75% 30.16 in 8.0 mi South 3.5 mph - N/A   Clear
5:56 AM 23.0 °F - 19.0 °F 85% 30.15 in 6.0 mi Calm Calm - N/A   Clear
6:56 AM 25.0 °F 20.7 °F 21.0 °F 85% 30.15 in 7.0 mi ESE 3.5 mph - N/A   Clear
7:56 AM 28.9 °F - 23.0 °F 78% 30.15 in 6.0 mi Calm Calm - N/A   Haze
8:56 AM 33.1 °F 28.7 °F 27.0 °F 78% 30.14 in 6.0 mi ESE 4.6 mph - N/A   Haze
9:56 AM 37.9 °F - 27.0 °F 65% 30.14 in 7.0 mi Calm Calm - N/A   Clear
10:56 AM 43.0 °F - 28.0 °F 56% 30.13 in 8.0 mi Calm Calm - N/A   Clear
11:56 AM 45.0 °F - 28.9 °F 53% 30.10 in 8.0 mi Calm Calm - N/A   Clear
12:56 PM 48.0 °F - 30.0 °F 50% 30.06 in 9.0 mi Variable 3.5 mph - N/A   Clear
1:56 PM 50.0 °F - 30.0 °F 46% 30.04 in 9.0 mi East 3.5 mph - N/A   Clear
2:56 PM 50.0 °F - 30.9 °F 48% 30.04 in 9.0 mi East 6.9 mph - N/A   Clear
3:56 PM 46.9 °F - 30.9 °F 54% 30.05 in 9.0 mi East 5.8 mph - N/A   Clear
4:56 PM 37.9 °F 33.5 °F 28.0 °F 68% 30.06 in 9.0 mi East 5.8 mph - N/A   Clear
5:56 PM 37.9 °F - 28.0 °F 68% 30.07 in 9.0 mi Calm Calm - N/A   Clear
6:56 PM 36.0 °F 30.3 °F 28.0 °F 73% 30.08 in 8.0 mi East 6.9 mph - N/A   Clear
7:56 PM 37.0 °F 32.4 °F 28.9 °F 73% 30.06 in 8.0 mi ESE 5.8 mph - N/A   Clear
8:56 PM 39.0 °F 34.0 °F 30.0 °F 70% 30.08 in 9.0 mi ENE 6.9 mph - N/A   Overcast
9:56 PM 42.1 °F 36.6 °F 30.0 °F 62% 30.08 in 9.0 mi ENE 9.2 mph - N/A   Overcast
10:56 PM 39.9 °F 33.4 °F 30.0 °F 68% 30.08 in 7.0 mi East 10.4 mph - N/A   Overcast
11:56 PM 37.9 °F 30.9 °F 30.9 °F 76% 30.07 in 7.0 mi East 10.4 mph - N/A   Overcast